Weather History for Goodland, KS

Change the Weather History Date:

Tuesday, May 13, 2014

  Actual Average Record
Temperature  
Mean Temperature 44 °F 58 °F  
Max Temperature 58 °F 72 °F 97 °F (1941)
Min Temperature 30 °F 45 °F 25 °F (1953)
Degree Days  
Heating Degree Days 21 7  
Month to date heating degree days 142 120  
Since 1 July heating degree days 5891 5775  
Cooling Degree Days 0 1  
Month to date cooling degree days 0 11  
Year to date cooling degree days 5 15  
Moisture  
Dew Point 27 °F    
Average Humidity 59    
Maximum Humidity 89    
Minimum Humidity 28    
Precipitation  
Precipitation T in 0.09 in 2.38 in (1985)
Month to date precipitation 0.16 1.04  
Year to date precipitation 1.95 4.57  
Snow  
Snow 0.00 in 0.00 in - ()
Month to date snowfall T 0.4  
Since 1 July snowfall 29.1 35.4  
Snow Depth 0.00 in    
Sea Level Pressure  
Sea Level Pressure 30.39 in    
Wind  
Wind Speed 14 mph (NW)    
Max Wind Speed 26 mph    
Max Gust Speed 32 mph    
Visibility 10 miles    
Events      
T = Trace of Precipitation, MM = Missing Value Source: NWS Daily Summary

Daily Weather History Graph

Daily Weather History Graph

Search for Another Location

Airport:

Trip Planner

Search our weather history database for the weather conditions in past years. The results will help you decide how hot, cold, wet, or windy it might be!

Date:

Astronomy

May. 13, 2014 Rise Set
Actual Time 5:34 AM MDT 7:51 PM MDT
Civil Twilight 5:04 AM MDT 8:22 PM MDT
Nautical Twilight 4:27 AM MDT 8:59 PM MDT
Astronomical Twilight 3:47 AM MDT 9:40 PM MDT
Moon 6:55 PM MDT (5/13) 4:52 AM MDT (5/13)
Length of Visible Light 15h 17m
Length of Day
14h 16m
Waxing Gibbous, 99% of the Moon is Illuminated
May 13
Waxing Gibbous
May 14
Full
May 21
Last Quarter
May 28
New
Jun 5
First Quarter

Hourly Weather History & Observations

Time (MDT) Temp. Windchill Dew Point Humidity Pressure Visibility Wind Dir Wind Speed Gust Speed Precip Events Conditions
12:53 AM 34.0 °F 25.0 °F 28.0 °F 79% 30.37 in 10.0 mi NW 12.7 mph - N/A   Clear
1:53 AM 34.0 °F 24.6 °F 28.0 °F 79% 30.36 in 10.0 mi WNW 13.8 mph - N/A   Clear
2:53 AM 32.0 °F 22.1 °F 28.0 °F 85% 30.36 in 10.0 mi NW 13.8 mph - N/A   Clear
3:53 AM 30.9 °F 21.7 °F 27.0 °F 85% 30.36 in 10.0 mi NW 11.5 mph - N/A   Clear
4:53 AM 30.0 °F 20.0 °F 27.0 °F 88% 30.36 in 10.0 mi NW 12.7 mph - N/A   Clear
5:53 AM 30.9 °F 20.7 °F 27.0 °F 85% 30.38 in 10.0 mi WNW 13.8 mph - N/A   Clear
6:53 AM 35.6 °F 26.2 °F 28.4 °F 75% 30.37 in 10.0 mi NW 15.0 mph - N/A   Clear
7:53 AM 41.0 °F 32.8 °F 30.0 °F 65% 30.41 in 10.0 mi NW 16.1 mph - N/A   Clear
9:53 AM 48.2 °F - 26.6 °F 43% 30.40 in 10.0 mi NNW 17.3 mph 27.6 mph N/A   Clear
10:53 AM 50.0 °F - 23.0 °F 35% 30.42 in 10.0 mi NNW 19.6 mph - N/A   Mostly Cloudy
11:53 AM 51.1 °F - 21.9 °F 32% 30.41 in 10.0 mi North 17.3 mph 25.3 mph N/A   Mostly Cloudy
12:53 PM 54.0 °F - 25.0 °F 33% 30.39 in 10.0 mi NNW 18.4 mph 26.5 mph N/A   Mostly Cloudy
1:53 PM 54.0 °F - 24.1 °F 31% 30.39 in 10.0 mi North 18.4 mph - N/A   Overcast
2:53 PM 55.9 °F - 25.0 °F 30% 30.37 in 9.0 mi NNW 17.3 mph 26.5 mph N/A   Overcast
3:53 PM 57.0 °F - 24.1 °F 28% 30.35 in 10.0 mi NNW 17.3 mph 23.0 mph N/A   Overcast
4:53 PM 54.0 °F - 25.0 °F 33% 30.36 in 10.0 mi NNW 17.3 mph - N/A   Mostly Cloudy
5:53 PM 53.1 °F - 27.0 °F 37% 30.36 in 10.0 mi North 13.8 mph - N/A   Overcast
6:53 PM 52.0 °F - 28.0 °F 40% 30.35 in 10.0 mi NNW 13.8 mph - N/A   Partly Cloudy
7:53 PM 46.9 °F - 30.9 °F 54% 30.38 in 10.0 mi NW 18.4 mph - N/A   Partly Cloudy
8:53 PM 44.1 °F 39.0 °F 32.0 °F 63% 30.40 in 10.0 mi North 9.2 mph - N/A   Overcast
9:53 PM 37.0 °F 31.6 °F 30.9 °F 79% 30.42 in 10.0 mi NW 6.9 mph - N/A   Clear
10:53 PM 35.1 °F 30.1 °F 30.0 °F 82% 30.42 in 10.0 mi WNW 5.8 mph - N/A   Clear
11:53 PM 33.1 °F 26.1 °F 30.0 °F 89% 30.43 in 10.0 mi West 8.1 mph - N/A   Clear